Weather History for Szolnok, Hungary

Change the Weather History Date:

Friday, September 28, 2012

  Actual Average (LHBP) Record (LHBP)
Temperature  
Mean Temperature 65 °F -  
Max Temperature 73 °F 66 °F 78 °F (2011)
Min Temperature 57 °F 46 °F 33 °F (1997)
Growing Degree Days 15 (Base 50)    
Moisture  
Dew Point 51 °F    
Average Humidity 63    
Maximum Humidity 88    
Minimum Humidity 38    
Precipitation  
Precipitation 0.00 in - - ()
Sea Level Pressure  
Sea Level Pressure 30.09 in    
Wind  
Wind Speed 6 mph ()    
Max Wind Speed 13 mph    
Max Gust Speed -    
Visibility 6.2 miles    
Events Rain    
Averages and records for this station are not official NWS values.
T = Trace of Precipitation, MM = Missing Value Source: Averaged Metar Reports

Daily Weather History Graph

Daily Weather History Graph

Search for Another Location

Airport:

Trip Planner

Search our weather history database for the weather conditions in past years. The results will help you decide how hot, cold, wet, or windy it might be!

Date:

Astronomy

Sep. 28, 2012 Rise Set
Actual Time 6:34 AM CEST 6:24 PM CEST
Civil Twilight 6:03 AM CEST 6:54 PM CEST
Nautical Twilight 5:28 AM CEST 7:30 PM CEST
Astronomical Twilight 4:51 AM CEST 8:06 PM CEST
Moon 5:19 PM CEST (9/28) 4:41 AM CEST (9/28)
Length of Visible Light 12h 50m
Length of Day
11h 50m
Waxing Gibbous, 97% of the Moon is Illuminated
Sep 28
Waxing Gibbous
Sep 30
Full
Oct 8
Last Quarter
Oct 15
New
Oct 22
First Quarter

Hourly Weather History & Observations

Time (CEST) Temp. Dew Point Humidity Pressure Visibility Wind Dir Wind Speed Gust Speed Precip Events Conditions
12:15 AM 71.6 °F 53.6 °F 53% 29.95 in - SW 6.7 mph - N/A   Clear
12:45 AM 71.6 °F 55.4 °F 57% 29.95 in - SW 8.9 mph - N/A   Clear
1:15 AM 71.6 °F 55.4 °F 57% 29.98 in - WSW 8.9 mph - N/A   Clear
1:45 AM 69.8 °F 55.4 °F 60% 29.98 in - WSW 6.7 mph - N/A   Clear
2:15 AM 69.8 °F 55.4 °F 60% 29.98 in - WSW 6.7 mph - N/A   Clear
2:45 AM 69.8 °F 53.6 °F 56% 29.98 in - WSW 8.9 mph - N/A   Clear
3:15 AM 69.8 °F 53.6 °F 56% 30.01 in - West 11.2 mph - N/A   Clear
3:45 AM - - N/A% - 6.2 mi WNW 6.7 mph - N/A Rain Light Rain
4:15 AM 62.6 °F 51.8 °F 68% 30.01 in - WNW 13.4 mph - N/A   Clear
4:45 AM 62.6 °F 51.8 °F 68% 30.01 in - WNW 13.4 mph - N/A   Clear
5:02 AM 62.6 °F 51.8 °F 68% 30.04 in 6.2 mi NW 13.4 mph - N/A Rain Light Rain Showers
5:15 AM 60.8 °F 51.8 °F 72% 30.04 in 6.2 mi WNW 13.4 mph - N/A Rain Light Rain Showers
5:45 AM 59.0 °F 51.8 °F 77% 30.06 in 6.2 mi WNW 11.2 mph - N/A Rain Light Rain Showers
6:15 AM 57.2 °F 53.6 °F 88% 30.06 in 6.2 mi WNW 6.7 mph - N/A Rain Light Rain Showers
6:41 AM 57.2 °F 53.6 °F 88% 30.06 in - West 4.5 mph - N/A   Clear
6:45 AM - - N/A% - 6.2 mi WNW 6.7 mph - N/A Rain Light Rain
7:15 AM 57.2 °F 53.6 °F 88% 30.06 in - SW 4.5 mph - N/A   Clear
7:45 AM 57.2 °F 53.6 °F 88% 30.09 in - WSW 4.5 mph - N/A   Clear
8:15 AM 57.2 °F 53.6 °F 88% 30.12 in - West 8.9 mph - N/A   Clear
8:45 AM 59.0 °F 53.6 °F 82% 30.12 in - West 6.7 mph - N/A   Clear
9:15 AM 59.0 °F 53.6 °F 82% 30.12 in - West 6.7 mph - N/A   Clear
9:45 AM - - N/A% - - WNW 6.7 mph - N/A   Clear
10:15 AM 60.8 °F 51.8 °F 72% 30.15 in - WNW 6.7 mph - N/A   Clear
10:45 AM 62.6 °F 51.8 °F 68% 30.15 in - WNW 6.7 mph - N/A   Clear
11:15 AM 64.4 °F 50.0 °F 59% 30.15 in - WNW 6.7 mph - N/A   Clear
11:45 AM 66.2 °F 48.2 °F 52% 30.15 in - WNW 6.7 mph - N/A   Clear
12:15 PM 66.2 °F 48.2 °F 52% 30.15 in - West 6.7 mph - N/A   Clear
12:45 PM - - N/A% - - WNW 6.7 mph - N/A   Clear
1:15 PM 69.8 °F 48.2 °F 46% 30.15 in - WNW 6.7 mph - N/A   Clear
1:45 PM 71.6 °F 48.2 °F 43% 30.15 in - WNW 6.7 mph - N/A   Clear
2:15 PM 73.4 °F 46.4 °F 38% 30.15 in - WSW 6.7 mph - N/A   Clear
2:45 PM 71.6 °F 46.4 °F 41% 30.12 in - WSW 4.5 mph - N/A   Clear
3:15 PM 71.6 °F 46.4 °F 41% 30.12 in - West 2.2 mph - N/A   Clear
3:45 PM - - N/A% - - Variable 4.5 mph - N/A   Clear
4:15 PM 71.6 °F 48.2 °F 43% 30.12 in - SW 6.7 mph - N/A   Clear
4:45 PM 69.8 °F 48.2 °F 46% 30.12 in - SW 6.7 mph - N/A   Clear
5:15 PM 69.8 °F 48.2 °F 46% 30.12 in - SW 6.7 mph - N/A   Clear
5:45 PM 69.8 °F 48.2 °F 46% 30.12 in - SW 6.7 mph - N/A   Clear
6:15 PM 68.0 °F 50.0 °F 52% 30.12 in - SW 2.2 mph - N/A   Clear
6:45 PM - - N/A% - 6.2 mi Variable 4.5 mph - N/A   Clear
7:15 PM 62.6 °F 50.0 °F 63% 30.12 in - South 4.5 mph - N/A   Clear
7:45 PM 62.6 °F 51.8 °F 68% 30.12 in - South 2.2 mph - N/A   Clear
8:15 PM 62.6 °F 51.8 °F 68% 30.15 in - SSW 2.2 mph - N/A   Clear
8:45 PM 62.6 °F 51.8 °F 68% 30.15 in - SSW 2.2 mph - N/A   Clear
9:15 PM 64.4 °F 50.0 °F 59% 30.12 in - SW 2.2 mph - N/A   Clear
9:45 PM - - N/A% - 6.2 mi Variable 4.5 mph - N/A   Clear
10:15 PM 62.6 °F 51.8 °F 68% 30.15 in - NW 2.2 mph - N/A   Clear
10:45 PM 62.6 °F 51.8 °F 68% 30.15 in - Calm Calm - N/A   Clear
11:15 PM 62.6 °F 53.6 °F 72% 30.12 in - Calm Calm - N/A   Clear
11:45 PM 62.6 °F 53.6 °F 72% 30.15 in - Calm Calm - N/A   Clear